Wind_Speed
3 3 3 3 4 4 5 5 5 5 5 5 5 6 6 6 6 6 6 6 6 6 6 6 6 6 5 5 5 5 5 6 6 7 7 7 7 7 7 7 7 8 8
4 4 4 4 5 5 5 5 5 5 5 5 5 6 7 7 7 8 7 7 7 7 7 7 6 7 6 6 7 7 7 7 7 7 7 8 8 8 8 8 8 8 8
4 4 4 4 5 5 5 5 6 6 6 6 6 6 7 8 8 8 8 8 8 8 8 8 8 8 7 7 7 8 8 8 8 8 8 9 9 9 8 8 8 9 9
4 4 5 5 5 5 5 5 6 6 6 7 6 6 7 8 8 8 8 8 8 8 9 9 9 9 9 9 9 8 8 7 8 8 9 9 9 9 9 9 9 9 9
5 5 5 5 5 5 5 5 6 6 7 7 7 7 7 8 8 8 9 9 9 9 9 9 9 9 9 9 10 10 9 8 8 8 9 9 10 10 10 10 9 10 9
5 5 5 5 5 5 5 6 6 7 7 7 7 7 8 8 8 8 9 9 9 9 9 9 9 10 10 10 10 10 10 9 10 9 10 10 10 11 10 10 10 10 10
5 5 5 5 6 6 6 6 7 7 7 7 7 7 8 8 8 8 9 9 9 9 10 10 10 10 11 11 11 11 11 10 11 11 11 11 10 10 10 10 10 10 11
6 6 6 6 6 6 7 7 7 7 7 7 7 7 8 8 9 9 9 9 9 10 10 10 10 10 11 12 12 11 11 11 11 11 11 10 10 10 10 11 11 11 11
6 6 6 6 6 6 7 7 7 7 7 8 8 8 8 8 9 9 10 10 10 10 11 11 12 12 12 12 13 12 12 12 12 12 12 11 12 11 11 11 12 12 12
7 7 7 7 7 7 7 8 8 8 8 9 9 9 9 9 9 9 10 10 10 10 11 11 12 13 13 13 13 14 14 14 13 13 12 12 12 12 12 13 13 12 12
8 9 8 8 8 8 8 9 9 8 9 9 9 9 9 9 10 10 10 10 10 10 11 11 12 13 13 13 13 13 14 14 14 14 13 13 13 13 13 13 13 13 13
9 9 9 9 9 9 9 9 9 9 9 10 10 10 10 10 10 10 11 10 10 10 11 12 13 13 13 12 12 13 13 13 13 14 14 14 14 14 14 13 13 13 13
10 9 9 9 9 9 9 9 9 9 9 10 10 10 11 11 11 11 11 11 11 11 11 12 12 13 12 12 11 12 13 13 13 14 13 13 14 14 14 14 14 14 13
10 9 10 10 10 10 10 9 10 10 10 11 11 11 11 11 11 11 11 11 12 12 12 12 13 13 13 13 12 12 12 13 14 13 13 13 13 14 14 14 14 14 14
10 10 11 11 11 10 10 10 11 11 11 12 12 11 11 11 12 12 12 11 11 12 12 13 13 13 14 14 13 13 12 12 13 13 13 13 13 13 13 14 14 14 14
10 10 11 11 11 11 10 11 11 11 12 12 12 12 12 12 12 12 12 12 12 12 12 12 13 13 13 13 14 14 13 12 12 12 12 12 12 13 13 14 13 13 13
10 11 11 11 11 12 11 11 12 12 12 12 12 12 12 12 12 12 12 12 13 13 13 13 13 13 13 14 14 14 14 13 13 12 12 12 12 13 12 12 12 11 11
11 11 11 12 12 12 12 12 13 13 12 12 12 12 12 12 12 12 12 13 13 14 14 14 13 13 13 13 13 14 14 13 13 13 13 12 12 12 11 11 11 11 12
12 12 12 12 13 13 13 13 13 13 13 12 12 12 12 12 12 12 12 13 13 14 13 12 12 12 12 12 12 13 14 14 14 14 13 13 13 12 12 12 12 12 12
13 13 13 13 13 14 14 14 13 13 13 13 12 12 13 13 13 12 13 13 13 13 13 12 12 12 12 12 12 12 13 14 14 14 14 13 13 13 13 12 13 12 12
13 13 13 13 14 14 14 14 14 13 13 13 13 13 13 13 13 13 13 13 14 14 13 12 12 12 12 11 11 12 13 13 13 13 13 13 13 13 13 13 13 12 12
13 13 13 14 14 14 15 15 14 14 14 14 14 14 14 13 13 13 13 13 14 13 13 13 13 12 12 12 12 13 12 13 13 13 13 13 13 13 13 13 12 12 12
13 14 14 14 15 15 15 15 15 15 15 15 15 15 14 14 14 14 14 14 13 13 13 13 13 13 13 13 13 13 13 13 13 14 14 14 13 13 13 12 12 12 13
14 15 15 15 15 15 15 15 15 15 15 15 15 15 15 15 15 15 15 15 14 14 14 13 13 13 14 14 14 14 14 14 14 14 14 13 13 13 13 13 13 13 12
15 15 16 16 16 15 16 16 16 15 15 16 16 15 15 15 15 15 15 15 15 14 14 13 13 13 14 14 14 14 14 15 15 14 14 14 14 14 14 14 14 14 14
16 16 16 16 16 16 17 17 16 16 16 16 16 16 16 16 16 16 16 15 15 15 15 14 14 14 14 15 15 15 15 16 16 16 16 16 15 15 15 15 15 15 15
Wind_Direction
317 303 300 302 298 290 286 284 281 280 274 271 269 263 258 255 255 254 251 251 251 249 247 247 242 240 240 245 239 241 244 233 238 236 229 230 231 230 233 236 237 235 234
309 301 296 299 298 294 287 284 283 280 278 276 271 268 264 258 257 255 251 251 252 253 252 255 256 248 250 251 250 248 248 248 247 242 237 238 237 235 235 239 241 244 243
304 297 294 296 296 289 285 282 281 280 281 278 274 271 269 261 257 255 251 251 252 254 257 257 257 253 252 256 252 251 252 254 251 242 240 240 236 235 238 240 243 246 248
305 297 294 298 303 296 288 286 282 280 284 280 280 275 269 264 261 257 254 256 258 256 258 258 256 253 256 256 253 254 252 253 252 247 244 244 239 239 243 245 248 250 250
301 298 301 302 305 302 295 294 293 289 290 288 283 279 272 266 264 260 258 259 260 258 257 256 258 257 259 259 260 258 253 253 256 249 246 247 241 241 245 248 252 253 253
302 301 302 304 304 300 296 297 296 293 293 291 287 281 272 269 266 262 262 261 261 258 256 256 260 262 259 258 260 261 264 261 256 253 250 248 246 245 246 249 252 253 254
302 304 304 304 303 300 299 300 299 297 298 296 290 282 277 273 269 265 265 261 261 260 258 257 257 258 259 258 257 259 262 261 258 257 257 252 252 249 248 251 254 253 256
307 306 309 305 302 300 299 302 301 299 299 299 295 289 284 278 271 270 267 265 265 264 263 258 256 260 261 259 260 260 260 260 260 260 260 257 255 253 250 252 257 259 260
308 307 310 306 301 299 297 299 298 298 299 301 297 292 286 281 277 273 270 268 267 267 267 262 258 259 262 263 263 261 260 259 262 263 260 258 256 258 255 254 258 258 261
306 305 307 306 304 298 298 299 298 297 298 299 297 296 291 285 280 279 275 271 267 268 270 266 262 261 263 265 265 261 259 259 260 264 263 261 261 262 259 256 260 260 260
306 306 306 306 305 301 297 297 298 298 299 299 297 295 292 289 284 280 278 273 272 272 274 272 268 263 265 268 266 262 259 259 259 261 265 265 264 263 263 264 266 264 263
307 309 309 306 305 304 301 300 300 299 301 302 300 296 292 291 287 280 276 273 271 272 275 275 273 268 267 267 265 260 259 258 259 260 262 263 263 263 264 264 265 263 263
316 314 313 312 310 309 307 305 304 303 304 304 302 297 293 292 287 282 280 275 272 272 273 273 273 271 269 267 266 262 262 260 259 260 260 262 263 262 264 264 263 264 264
315 312 313 315 314 311 311 309 307 306 305 305 303 300 296 294 289 284 282 278 274 274 275 273 275 274 271 269 267 263 263 262 260 260 259 262 264 263 264 261 263 265 266
310 312 313 312 315 314 312 310 309 309 305 304 302 301 300 298 293 288 288 284 279 277 277 277 277 274 272 267 264 262 262 261 261 260 259 261 264 265 264 262 263 265 267
304 303 307 309 311 311 310 311 309 309 309 306 302 301 299 297 294 291 290 286 280 279 279 279 277 273 271 266 260 258 260 263 263 264 260 260 262 265 264 264 263 265 266
303 303 304 306 308 308 307 306 306 306 305 304 301 299 297 295 294 292 289 286 282 282 281 280 277 276 272 267 262 259 259 261 263 263 262 262 263 264 263 264 266 264 266
301 302 302 302 304 306 306 305 306 305 305 302 300 299 298 297 297 295 291 288 287 284 282 283 279 277 275 272 266 262 260 261 263 265 264 264 267 266 264 265 266 265 264
301 301 302 300 300 302 304 304 306 304 305 305 301 299 300 300 299 296 293 292 291 288 284 283 279 277 276 273 269 265 261 262 263 264 266 264 265 267 268 266 263 265 265
299 299 301 298 297 299 300 301 302 304 305 304 302 300 299 300 299 297 296 295 292 289 285 284 280 277 276 273 272 270 265 264 263 262 262 263 263 268 269 269 265 262 263
297 296 299 298 296 298 299 298 298 299 302 302 301 301 299 299 298 297 296 295 293 290 286 282 280 278 275 271 271 270 269 265 263 262 261 262 266 268 269 270 267 263 261
296 296 299 300 296 295 296 296 296 297 299 300 299 297 296 295 296 297 297 296 293 290 286 282 280 276 272 269 270 270 269 265 264 263 262 265 267 269 269 270 267 262 260
297 297 297 299 298 296 295 295 294 295 297 297 296 294 292 290 290 292 295 295 293 288 287 284 279 275 271 271 272 272 271 268 264 263 263 263 265 267 265 267 267 264 262
295 297 297 298 296 293 293 294 293 293 295 296 296 296 295 292 289 289 291 290 288 286 286 282 278 276 273 272 272 275 273 268 262 260 262 261 263 264 263 262 263 265 265
293 296 296 297 297 294 292 291 291 292 292 294 295 294 293 291 289 287 287 286 285 283 282 280 278 277 275 274 273 273 272 268 263 260 261 262 262 264 262 261 261 263 263
291 293 294 296 294 295 294 293 290 289 290 292 292 291 291 290 288 287 286 285 283 280 278 278 278 277 277 276 278 278 273 268 264 262 261 262 261 264 264 263 260 261 262
Height
5862 5862 5861 5861 5861 5861 5861 5860 5860 5860 5860 5860 5860 5860 5860 5861 5861 5861 5861 5861 5861 5862 5862 5862 5862 5863 5863 5863 5864 5864 5864 5865 5865 5866 5867 5867 5868 5869 5869 5870 5871 5872 5873
5862 5861 5861 5860 5860 5860 5860 5860 5860 5859 5859 5859 5859 5859 5859 5860 5860 5860 5860 5861 5861 5861 5861 5862 5862 5862 5862 5862 5863 5863 5863 5863 5864 5865 5866 5866 5867 5868 5868 5869 5870 5871 5872
5861 5860 5860 5860 5859 5859 5859 5859 5859 5858 5858 5858 5858 5858 5858 5858 5859 5859 5859 5859 5860 5860 5860 5861 5861 5861 5861 5862 5862 5862 5862 5863 5863 5864 5864 5865 5865 5866 5867 5868 5869 5870 5871
5860 5860 5859 5859 5858 5858 5858 5858 5858 5857 5857 5857 5857 5857 5857 5857 5857 5858 5858 5858 5858 5859 5859 5859 5860 5860 5860 5860 5860 5861 5861 5861 5862 5862 5863 5863 5864 5864 5865 5866 5867 5868 5869
5859 5859 5858 5858 5858 5857 5857 5857 5857 5856 5856 5856 5856 5856 5856 5856 5856 5856 5856 5857 5857 5857 5858 5858 5858 5858 5859 5859 5859 5859 5859 5860 5860 5861 5861 5861 5862 5863 5864 5865 5866 5866 5867
5858 5858 5857 5857 5857 5856 5856 5856 5855 5855 5855 5855 5855 5855 5854 5854 5855 5855 5855 5855 5855 5856 5856 5856 5857 5857 5857 5857 5858 5858 5858 5858 5859 5859 5859 5860 5861 5861 5862 5863 5864 5865 5865
5858 5857 5857 5856 5856 5855 5855 5855 5854 5854 5854 5853 5853 5853 5853 5853 5853 5853 5853 5854 5854 5854 5854 5855 5855 5855 5855 5856 5856 5857 5857 5857 5857 5857 5858 5858 5859 5859 5860 5861 5862 5862 5863
5856 5856 5856 5855 5854 5854 5854 5853 5853 5853 5852 5852 5852 5852 5851 5851 5851 5851 5852 5852 5852 5852 5852 5853 5853 5853 5853 5854 5854 5855 5855 5855 5855 5856 5856 5857 5857 5858 5858 5859 5860 5860 5861
5855 5855 5855 5854 5853 5853 5853 5852 5852 5851 5851 5851 5850 5850 5850 5850 5850 5850 5850 5850 5850 5850 5850 5850 5851 5851 5851 5852 5852 5852 5853 5853 5854 5854 5854 5855 5855 5856 5857 5858 5858 5858 5859
5854 5854 5853 5853 5852 5852 5851 5851 5850 5850 5850 5849 5849 5849 5848 5848 5848 5848 5848 5848 5848 5848 5848 5848 5848 5849 5849 5849 5850 5850 5850 5851 5851 5852 5852 5853 5853 5854 5854 5855 5855 5856 5857
5853 5852 5852 5851 5851 5850 5850 5849 5849 5849 5848 5848 5847 5847 5846 5846 5846 5846 5846 5846 5845 5846 5846 5846 5846 5846 5847 5847 5847 5847 5848 5848 5849 5850 5850 5851 5851 5852 5852 5853 5853 5854 5854
5851 5851 5850 5850 5849 5849 5848 5848 5847 5847 5846 5846 5846 5845 5845 5844 5844 5844 5844 5843 5843 5843 5844 5843 5844 5844 5844 5844 5844 5845 5845 5846 5847 5847 5848 5848 5849 5849 5850 5850 5851 5851 5851
5850 5849 5849 5848 5848 5847 5846 5846 5846 5845 5845 5844 5844 5843 5843 5842 5842 5842 5841 5841 5841 5841 5841 5841 5841 5841 5842 5842 5842 5843 5843 5844 5844 5845 5845 5846 5846 5847 5847 5848 5848 5849 5849
5849 5848 5847 5847 5846 5846 5845 5844 5844 5843 5843 5842 5842 5841 5841 5840 5840 5839 5839 5839 5838 5839 5839 5839 5839 5839 5839 5840 5840 5840 5840 5841 5841 5842 5843 5843 5843 5844 5844 5845 5846 5846 5846
5847 5847 5846 5845 5845 5844 5843 5843 5842 5842 5841 5840 5840 5839 5839 5838 5837 5837 5836 5836 5836 5836 5836 5836 5836 5836 5836 5837 5837 5837 5838 5838 5839 5839 5840 5840 5841 5841 5842 5842 5843 5843 5844
5846 5845 5845 5844 5843 5842 5842 5841 5840 5839 5839 5838 5837 5837 5836 5836 5835 5834 5834 5833 5833 5833 5833 5833 5833 5833 5833 5834 5834 5835 5835 5836 5836 5837 5837 5838 5838 5839 5839 5840 5840 5841 5841
5844 5844 5843 5842 5841 5841 5840 5839 5838 5837 5837 5836 5835 5835 5834 5833 5833 5832 5832 5831 5830 5830 5830 5830 5830 5830 5830 5831 5831 5832 5832 5833 5834 5834 5835 5835 5836 5836 5837 5837 5837 5838 5838
5842 5842 5841 5840 5839 5839 5838 5837 5836 5835 5834 5834 5833 5832 5831 5831 5830 5829 5829 5828 5828 5827 5827 5827 5827 5827 5827 5828 5828 5829 5830 5830 5831 5832 5832 5833 5833 5834 5834 5834 5835 5835 5835
5840 5839 5839 5838 5837 5837 5836 5835 5834 5833 5832 5831 5830 5830 5829 5828 5828 5827 5826 5825 5825 5825 5824 5824 5824 5825 5825 5825 5825 5826 5827 5827 5828 5829 5830 5830 5831 5831 5831 5831 5832 5832 5833
5838 5837 5836 5836 5835 5834 5833 5832 5832 5831 5830 5829 5828 5827 5826 5826 5825 5824 5824 5823 5822 5822 5822 5822 5822 5822 5822 5822 5823 5823 5824 5825 5825 5826 5827 5827 5828 5828 5828 5828 5829 5829 5830
5835 5835 5834 5833 5832 5832 5831 5830 5829 5828 5828 5827 5826 5825 5824 5823 5822 5822 5821 5820 5820 5819 5819 5819 5819 5819 5820 5820 5820 5821 5821 5822 5822 5823 5823 5824 5825 5825 5825 5825 5826 5826 5827
5833 5832 5831 5830 5829 5829 5828 5827 5826 5825 5825 5824 5823 5822 5821 5820 5820 5819 5818 5818 5817 5817 5817 5817 5817 5817 5817 5817 5818 5818 5818 5819 5819 5820 5821 5821 5821 5822 5822 5822 5823 5823 5824
5830 5829 5828 5827 5826 5826 5825 5824 5823 5823 5822 5821 5820 5819 5818 5817 5817 5816 5815 5815 5814 5814 5814 5814 5814 5814 5815 5815 5815 5815 5815 5816 5816 5817 5817 5817 5818 5818 5819 5819 5820 5820 5821
5827 5826 5825 5824 5823 5822 5821 5821 5820 5819 5819 5818 5816 5816 5815 5814 5813 5813 5812 5812 5812 5811 5811 5811 5811 5811 5811 5812 5812 5812 5812 5812 5813 5813 5814 5814 5814 5815 5815 5816 5817 5817 5818
5823 5822 5821 5820 5819 5818 5818 5817 5816 5816 5815 5814 5813 5812 5811 5810 5810 5809 5809 5809 5808 5808 5808 5808 5808 5808 5808 5808 5808 5808 5808 5808 5809 5810 5810 5811 5811 5811 5812 5813 5813 5814 5815
5820 5819 5818 5817 5816 5815 5814 5813 5812 5812 5811 5810 5809 5809 5808 5807 5806 5806 5805 5805 5805 5804 5804 5804 5804 5804 5805 5805 5804 5804 5804 5804 5805 5806 5806 5807 5808 5808 5808 5809 5810 5810 5811